Location: �terpigny
(49.8910°N, 2.9249°E)
Time: 09:37:24
(UTC+00:00)

HJ-1C - Pass Details

Date: 24 October 2021
Orbit: 423 x 433 km, 97.1° (Epoch: 30 November)

Event Time Altitude Azimuth Distance (km) Brightness Sun altitude
Exits shadow 18:00:13 24° 107° (ESE) 922 4.4 -13.6°
Maximum altitude 18:01:19 31° 70° (ENE) 781 4.1 -13.8°
Drops below altitude 10° 18:04:15 10° 6° (N) 1,536 6.0 -14.3°
Sets 18:06:24 0° 356° (N) 2,410 7.1 -14.6°
